Weather in Elistanzhi

Russia / Chechen Republic     42°58′13″N   46°01′02″E
temp.,
°C
wind,
m/s
gust,
m/s
humid.,
%
clouds,
%
prec.,
mm/h
press.,
hPa
HPBL,
m
15 april, thu
thu1500:00+5s22832 0.0 101817
03:00+5ssw228378 0.0 101930
06:00+5s22752 0.0 101933
09:00+12nw22520 0.0 1018810
12:00+16nnw33393 0.0 10161532
15:00+16n324022 0.0 10161702
18:00+12ne1257100 0.0 101779
21:00+9s2264100 0.0 101914
16 april, fri
fri1600:00+8s226798 0.0 101816
03:00+8s22685 0.0 101818
06:00+8sse22685 0.0 101920
09:00+14nne234773 0.0 1018908
12:00+17nne444536 0.0 10171586
15:00+17ne434739 0.3 10161529
18:00+13ese11740 1.2 101634
21:00+10s227950 1.4 101821
17 april, sat
sat1700:00+9ssw22837 0.7 102019
03:00+9s22745 0.8 101818
06:00+9ssw1174100 0.0 101818
09:00+12nw2269100 0.0 1020653
12:00+12nw3470100 0.1 10211065
15:00+10nw1291100 0.4 1021345
18:00+9nw1197100 1.1 1022129
21:00+8nw1298100 1.8 1023176
18 april, sun
sun1800:00+8n1199100 0.8 1022138
03:00+8ne1298100 0.9 1021148
06:00+8nne1198100 0.0 1021103
09:00+9ene1191100 0.1 1019255
12:00+13n117674 0.0 1016650
15:00+13nnw3377100 0.1 1016737
18:00+12n128833 0.5 1015118
21:00+10sw129870 1.9 1018170
19 april, mon
mon1900:00+9s119898 0.5 101838
03:00+9nw2399100 0.6 1019269
06:00+7wnw1299100 1.1 1021201
09:00+8wnw1196100 1.6 1022285
12:00+8w1193100 0.1 1022351
15:00+12n327689 0.1 1020719
18:00+10n118997 0.0 1022158
21:00+9sse019089 0.0 102355